Vorticity
5 12 7 4 2 6 6 7 6 6 9 14 9 13 12 8 7 6 8 7 6 3 5 4 2 2 8 7 4 8 5 -1 1 7 13 12 13 29 20 3 7 6 4 8
6 11 5 4 5 5 5 6 5 4 10 17 12 9 12 11 8 9 7 8 6 4 7 6 6 5 5 6 6 4 3 7 12 5 -0 7 14 13 9 16 12 13 12 15
7 8 6 5 8 4 3 4 7 7 14 11 12 13 10 11 11 11 6 9 9 7 8 8 8 6 5 6 5 8 4 3 6 3 6 6 5 14 12 9 11 16 11 8
5 8 7 5 4 4 3 6 7 10 9 15 13 10 11 11 14 6 8 9 7 5 9 6 6 3 5 4 6 9 -2 6 9 8 6 2 5 6 18 9 11 9 16 8
1 10 5 2 2 6 1 5 8 11 10 13 9 18 6 8 14 9 9 13 6 8 4 5 3 5 5 6 6 9 3 4 5 5 8 10 9 7 12 17 9 12 7 13
3 10 2 4 2 5 6 6 5 5 10 14 10 10 16 10 9 10 9 9 6 15 7 6 4 4 7 5 4 6 3 3 4 5 6 9 12 14 12 13 13 7 12 9
6 7 4 6 1 6 8 6 4 4 3 9 9 10 9 5 10 9 9 12 9 13 10 14 4 4 8 6 5 5 5 7 3 5 6 6 13 13 11 10 13 16 10 12
3 8 7 4 4 3 8 4 3 3 0 5 13 6 8 12 7 6 8 7 10 9 2 14 7 0 6 6 6 9 4 9 4 4 6 11 10 12 12 12 8 14 11 18
5 8 8 3 4 6 6 8 2 4 -1 5 10 12 15 8 7 7 2 10 11 11 2 6 4 8 7 1 4 9 9 7 7 7 11 9 13 10 14 16 8 8 16 12
4 7 5 4 3 0 4 9 7 6 3 3 14 6 16 12 9 2 10 10 9 6 6 9 6 8 7 4 8 6 6 4 5 7 5 6 10 13 15 15 12 8 17 14
5 8 4 6 5 4 4 7 7 5 7 1 10 7 17 17 10 10 9 9 7 5 8 6 6 6 4 7 7 6 3 2 6 8 5 8 11 14 17 16 13 13 17 16
4 4 6 2 3 3 5 8 6 2 4 7 11 8 11 7 8 7 7 7 7 8 8 6 6 5 9 5 5 4 6 7 9 5 6 9 13 15 20 18 15 16 21 9
2 5 7 5 5 3 -0 14 7 6 9 16 2 15 9 7 4 5 9 9 10 7 6 6 6 5 9 6 6 4 4 4 4 8 8 14 14 17 17 17 15 15 11 14
-0 9 2 8 6 -0 8 18 8 9 10 13 9 8 14 2 2 9 7 10 4 2 4 5 6 4 4 5 2 4 6 8 7 5 14 15 17 17 15 15 15 17 15 11
4 4 2 4 9 8 10 11 15 17 15 3 21 -0 11 4 4 6 1 7 2 2 8 -4 3 3 6 4 1 2 6 6 7 14 18 15 13 14 14 13 10 13 14 14
2 2 -0 10 14 6 1 22 8 18 24 5 4 7 -0 4 5 10 7 3 8 8 2 3 4 3 5 3 4 6 8 10 15 16 12 13 13 15 18 20 14 9 12 11
6 10 13 12 9 0 8 10 18 7 8 14 10 3 6 8 8 1 2 0 2 6 8 5 2 3 4 6 7 9 12 18 16 13 13 11 14 19 24 26 20 13 11 13
26 12 2 15 6 1 2 14 11 12 16 11 10 7 4 7 5 7 3 6 8 4 10 8 8 10 4 5 10 13 15 14 16 13 13 15 21 22 23 25 25 17 11 12
-10 12 18 2 11 17 7 -3 8 12 13 6 20 12 6 5 4 9 5 13 14 14 7 3 6 13 9 12 13 12 12 15 16 19 16 14 21 18 12 19 17 18 15 15
18 14 -7 15 -2 13 18 0 15 15 7 14 13 9 5 -0 7 5 5 9 9 10 9 4 17 12 11 12 7 13 17 20 19 22 17 14 16 23 9 20 14 22 19 18
2 5 9 6 18 9 6 17 3 7 7 9 7 3 11 4 5 -3 6 7 9 13 2 16 14 15 13 10 15 19 23 22 15 12 12 26 15 23 6 18 14 12 11 15
5 5 6 9 19 10 13 5 0 28 5 1 3 13 13 6 -9 7 6 6 10 18 18 17 20 15 12 16 20 23 15 15 18 22 28 10 21 18 17 19 18 15 13 14
22 19 9 13 4 -4 9 1 7 -7 6 10 19 15 -6 -3 6 1 7 10 12 17 23 21 12 14 14 20 19 7 16 12 14 15 25 13 13 10 10 10 9 9 8 8
17 9 4 -4 5 8 7 1 8 15 8 20 11 -17 3 8 2 6 13 14 24 23 17 11 14 14 16 14 16 3 15 10 12 8 6 17 13 9 10 12 12 14 16 16
-11 -6 9 20 15 7 9 12 6 6 14 11 11 3 1 3 11 16 23 22 23 17 12 12 12 13 18 12 11 9 17 5 15 19 12 8 11 14 13 14 14 13 13 13
2 7 11 12 15 18 11 6 7 7 7 8 6 2 12 16 19 18 17 21 16 12 11 10 11 15 14 8 13 12 9 8 18 17 18 12 11 13 13 14 14 11 11 10
Height
5832 5828 5824 5820 5816 5812 5807 5803 5798 5791 5788 5781 5775 5772 5768 5765 5761 5758 5755 5752 5749 5747 5743 5740 5735 5731 5727 5723 5720 5716 5712 5709 5706 5704 5702 5700 5698 5697 5696 5695 5694 5694 5693 5693
5831 5827 5823 5818 5813 5808 5804 5800 5795 5791 5784 5779 5771 5767 5764 5760 5757 5754 5750 5748 5745 5742 5738 5735 5731 5727 5723 5718 5715 5712 5708 5704 5700 5697 5695 5692 5691 5689 5687 5685 5684 5683 5682 5682
5827 5824 5819 5815 5810 5805 5800 5796 5791 5787 5781 5774 5768 5764 5760 5756 5752 5749 5747 5744 5740 5737 5733 5730 5725 5722 5718 5713 5710 5706 5703 5699 5695 5691 5688 5685 5682 5679 5677 5675 5673 5671 5670 5669
5825 5820 5815 5812 5808 5804 5798 5793 5787 5783 5777 5772 5765 5761 5755 5751 5747 5745 5742 5739 5735 5731 5728 5724 5720 5716 5712 5708 5703 5700 5696 5692 5689 5685 5681 5678 5675 5671 5668 5664 5662 5660 5658 5657
5821 5816 5812 5809 5805 5800 5795 5788 5783 5778 5774 5768 5763 5756 5751 5746 5742 5739 5737 5734 5729 5724 5721 5717 5713 5709 5705 5701 5698 5693 5689 5685 5681 5677 5673 5669 5666 5662 5658 5655 5651 5648 5645 5644
5817 5813 5809 5804 5800 5795 5790 5785 5779 5773 5768 5765 5758 5752 5748 5741 5736 5732 5730 5727 5722 5718 5713 5709 5705 5702 5698 5694 5690 5685 5680 5676 5671 5667 5663 5659 5655 5651 5647 5644 5640 5637 5633 5631
5813 5808 5804 5800 5796 5790 5785 5779 5774 5769 5763 5759 5754 5749 5742 5736 5731 5726 5721 5718 5715 5712 5708 5702 5698 5695 5691 5686 5682 5677 5672 5667 5662 5657 5653 5648 5644 5640 5636 5631 5628 5625 5621 5618
5809 5805 5799 5793 5789 5784 5779 5774 5768 5762 5758 5754 5747 5743 5737 5731 5725 5719 5715 5711 5708 5705 5700 5695 5691 5686 5682 5676 5671 5666 5661 5656 5652 5646 5642 5637 5632 5628 5623 5618 5614 5611 5608 5605
5801 5799 5793 5788 5783 5778 5772 5769 5764 5757 5752 5746 5741 5736 5729 5723 5717 5712 5707 5704 5700 5695 5688 5684 5681 5676 5670 5665 5660 5654 5649 5643 5637 5632 5628 5624 5618 5614 5608 5603 5600 5596 5593 5591
5795 5791 5788 5782 5777 5771 5766 5762 5756 5751 5743 5739 5734 5729 5723 5715 5710 5704 5699 5696 5691 5685 5681 5676 5670 5664 5659 5654 5648 5642 5637 5631 5625 5620 5614 5609 5605 5599 5593 5587 5583 5580 5578 5575
5787 5783 5782 5774 5770 5764 5759 5753 5748 5742 5735 5727 5722 5721 5714 5706 5702 5695 5691 5685 5680 5674 5669 5665 5658 5652 5646 5640 5635 5630 5625 5619 5613 5608 5601 5596 5589 5582 5576 5571 5567 5564 5563 5561
5778 5774 5771 5766 5761 5756 5749 5743 5738 5732 5726 5718 5712 5715 5706 5697 5692 5687 5682 5676 5671 5665 5659 5653 5647 5641 5634 5628 5623 5618 5611 5605 5599 5592 5585 5579 5573 5566 5561 5555 5552 5549 5548 5547
5769 5765 5760 5756 5752 5746 5739 5732 5728 5720 5713 5712 5700 5701 5694 5689 5681 5677 5672 5666 5660 5654 5647 5641 5635 5630 5623 5616 5609 5603 5596 5589 5583 5577 5571 5565 5557 5550 5544 5540 5537 5534 5532 5532
5760 5757 5754 5748 5743 5737 5731 5725 5718 5707 5700 5697 5692 5690 5686 5677 5671 5667 5661 5655 5649 5643 5638 5631 5624 5617 5610 5603 5595 5588 5581 5575 5568 5561 5556 5547 5541 5535 5530 5526 5522 5519 5517 5517
5750 5746 5743 5738 5733 5726 5717 5715 5709 5697 5692 5680 5687 5675 5677 5668 5663 5657 5651 5645 5639 5632 5626 5618 5611 5603 5596 5588 5581 5574 5566 5558 5552 5545 5538 5530 5523 5518 5514 5509 5507 5505 5502 5502
5738 5732 5727 5727 5721 5714 5706 5706 5697 5689 5682 5671 5668 5669 5661 5656 5651 5645 5639 5633 5626 5621 5613 5606 5599 5591 5583 5575 5567 5559 5551 5544 5536 5527 5520 5514 5508 5502 5497 5492 5489 5488 5487 5486
5724 5717 5711 5710 5706 5700 5698 5693 5686 5679 5670 5662 5656 5652 5646 5643 5638 5632 5626 5619 5612 5605 5598 5592 5584 5575 5567 5559 5551 5543 5535 5527 5518 5510 5503 5496 5490 5484 5478 5473 5470 5470 5470 5470
5712 5706 5698 5693 5689 5685 5682 5678 5672 5665 5660 5651 5645 5638 5633 5628 5623 5617 5610 5603 5597 5590 5583 5576 5568 5561 5552 5544 5536 5527 5518 5509 5501 5493 5486 5479 5472 5466 5461 5457 5454 5454 5454 5455
5704 5694 5686 5678 5672 5670 5675 5663 5655 5649 5648 5639 5632 5626 5620 5613 5609 5603 5597 5591 5584 5576 5568 5560 5551 5543 5535 5527 5519 5510 5502 5493 5484 5476 5470 5464 5457 5451 5447 5444 5442 5441 5441 5441
5695 5684 5676 5670 5659 5651 5653 5650 5642 5635 5632 5624 5618 5612 5606 5599 5594 5590 5582 5575 5568 5560 5551 5543 5535 5526 5518 5511 5503 5493 5484 5475 5467 5461 5455 5450 5444 5439 5435 5432 5431 5429 5429 5428
5679 5673 5666 5661 5647 5641 5640 5633 5628 5622 5619 5611 5606 5599 5592 5587 5580 5574 5567 5559 5551 5543 5535 5526 5518 5510 5502 5495 5486 5476 5468 5460 5454 5448 5441 5436 5431 5427 5424 5421 5420 5418 5417 5416
5666 5658 5652 5644 5637 5629 5626 5620 5616 5609 5601 5597 5591 5584 5578 5571 5564 5558 5550 5543 5535 5527 5519 5511 5502 5494 5486 5478 5470 5462 5455 5448 5441 5434 5428 5424 5420 5417 5413 5411 5409 5408 5406 5405
5650 5647 5638 5634 5626 5619 5612 5606 5599 5593 5587 5580 5574 5568 5563 5557 5549 5541 5533 5525 5518 5510 5502 5494 5486 5479 5471 5463 5456 5449 5443 5436 5429 5424 5418 5414 5412 5408 5404 5402 5399 5397 5395 5394
5636 5630 5624 5616 5615 5606 5600 5594 5586 5579 5572 5566 5559 5553 5546 5538 5530 5523 5515 5508 5500 5492 5485 5478 5471 5463 5456 5449 5443 5437 5431 5425 5418 5413 5409 5405 5402 5398 5394 5392 5389 5386 5384 5383
5620 5615 5609 5603 5595 5588 5583 5577 5570 5565 5558 5551 5542 5535 5528 5521 5514 5506 5498 5490 5483 5476 5469 5463 5456 5449 5442 5436 5431 5425 5418 5413 5406 5402 5398 5395 5391 5388 5385 5382 5379 5376 5374 5373
5604 5599 5593 5586 5579 5572 5568 5561 5554 5548 5540 5533 5525 5518 5511 5503 5495 5488 5481 5474 5467 5461 5455 5448 5441 5435 5429 5424 5418 5412 5406 5400 5394 5389 5386 5383 5380 5377 5374 5371 5369 5366 5364 5362